カタログに戻る

STARLINK-32469

運用中通信VLEO
NORAD 61721·PAYLOAD·🇺🇸 United States

打ち上げ Oct 30, 2024 から Cape Canaveral Space Force Station

Loading…

次のパス (今後24時間)

TLE

最新Source: CelesTrak SupGP

元期: Sep 15, 2026, 03:18 UTC

1 61721C 24196Q   26258.13798611  .00020587  00000+0  60822-3 0  2588
2 61721  53.1566 299.0889 0001173  89.9801 289.6788 15.34382497    12

AllMySatでSTARLINK-32469をリアルタイム追跡

Download on the App Store